Wind_Speed
5 6 7 8 10 11 12 13 14 16 17 18 19 20 22 23 24 25 26 28 29 30 31 32 32 33 33 34 34 34 34 34 34 35 36 36 37 37 37 37 36 34 32
7 8 9 11 12 13 14 15 16 18 19 21 22 23 25 26 27 29 30 31 32 33 34 35 36 36 37 38 38 39 39 39 39 39 40 40 40 40 40 41 41 40 38
9 10 11 12 13 14 15 17 18 20 22 24 26 27 28 29 31 32 33 34 35 35 36 37 38 39 40 41 42 43 43 44 44 44 44 45 45 44 44 44 44 44 44
11 12 13 14 15 16 18 20 22 24 26 27 28 30 31 32 33 34 34 35 36 37 38 39 40 41 42 43 45 46 47 48 48 49 49 50 50 50 49 48 47 47 47
13 14 15 16 18 19 22 23 25 27 28 30 31 32 33 34 34 35 36 37 38 39 40 41 42 43 45 46 47 49 50 51 52 53 54 54 55 55 55 54 53 51 51
14 15 17 19 20 22 24 26 28 29 31 32 33 33 34 34 35 36 37 39 40 42 43 45 46 47 49 50 51 52 53 54 55 57 58 59 60 61 61 61 59 58 56
16 18 20 21 23 25 27 28 30 31 32 32 33 33 35 36 37 38 40 41 43 45 47 49 50 52 53 55 56 57 58 59 60 61 62 63 65 65 66 66 65 64 62
19 20 22 24 26 27 29 30 31 32 32 33 34 35 37 38 39 41 43 45 47 49 51 53 55 57 59 61 62 63 65 66 66 67 68 69 70 71 71 72 71 70 68
21 23 24 26 28 29 30 31 32 33 34 35 36 37 39 41 42 44 46 48 50 53 56 58 60 62 65 67 69 71 73 74 75 75 76 76 77 77 77 77 77 76 75
22 24 25 26 28 29 30 31 33 34 36 37 38 40 41 43 45 46 49 51 54 57 60 63 65 68 72 75 78 81 83 85 86 87 87 86 86 86 85 84 83 82 81
22 23 25 26 27 29 31 32 34 36 38 39 41 42 44 45 47 49 52 54 57 60 64 67 70 74 78 82 86 90 94 96 98 99 99 99 98 96 95 93 91 89 87
22 23 24 26 28 30 32 34 36 38 40 41 43 45 46 48 49 52 54 57 60 63 67 71 75 79 83 88 94 99 103 107 110 111 111 110 109 107 106 103 100 97 95
21 23 25 27 28 30 33 35 37 39 41 43 45 47 48 50 52 54 57 60 63 66 70 74 78 83 88 94 99 105 109 113 114 114 114 113 113 114 115 114 112 108 104
21 23 25 27 29 31 34 36 38 41 43 44 46 48 49 51 53 56 58 61 65 68 72 76 81 87 93 99 104 108 109 108 105 102 100 99 100 103 109 115 119 118 115
21 23 25 27 30 32 34 36 39 41 43 44 46 48 50 52 54 57 59 63 66 70 74 79 85 91 96 101 104 103 101 98 95 92 89 88 87 89 93 101 112 120 122
22 24 26 28 30 32 34 37 39 41 43 45 47 48 50 52 54 57 60 64 67 71 76 82 88 94 98 99 98 95 92 90 87 86 86 85 86 87 88 91 98 108 118
23 25 27 29 31 33 35 37 40 42 44 46 47 49 51 53 55 58 61 65 69 74 79 85 91 94 95 94 91 88 84 83 82 83 83 83 83 84 87 90 94 99 107
25 27 29 31 32 34 36 38 41 43 46 48 49 51 52 54 56 59 63 67 71 76 82 88 92 93 91 88 85 81 78 78 79 79 77 76 74 75 79 85 92 96 100
26 28 30 33 34 36 38 40 42 45 48 50 52 53 54 56 58 61 64 68 73 79 85 89 91 90 87 84 80 76 75 75 75 74 72 69 67 66 67 73 82 92 98
26 29 32 34 36 38 39 42 44 47 50 53 55 56 57 58 60 62 66 70 75 81 86 89 88 86 83 80 77 74 73 72 71 68 66 64 62 61 61 64 70 80 91
27 30 33 35 38 40 42 44 46 49 52 55 58 60 60 61 62 64 68 72 78 83 86 87 86 83 79 78 76 73 70 68 65 63 61 59 58 57 57 59 62 71 81
28 31 34 37 39 42 44 46 48 51 54 57 60 62 63 64 64 66 70 74 79 84 86 85 83 80 77 76 76 75 70 62 57 56 55 54 54 53 52 52 56 63 72
30 32 35 38 41 44 46 48 50 53 56 59 62 64 66 66 67 69 72 76 81 84 84 83 80 78 75 73 74 75 72 65 57 49 47 48 48 47 46 44 46 53 65
31 34 37 40 43 46 48 50 52 55 57 60 63 66 68 69 69 70 74 77 81 83 83 80 78 76 75 73 71 71 69 66 61 51 42 41 42 42 40 39 37 43 55
34 36 38 41 44 47 50 52 54 56 58 61 65 67 69 70 71 72 75 78 81 82 80 78 75 74 74 73 71 68 64 61 58 55 46 37 34 36 36 35 33 33 43
37 39 41 43 45 48 51 53 56 58 60 62 65 68 70 72 73 74 76 78 80 80 78 75 73 72 72 72 70 67 63 58 54 51 46 38 31 29 31 31 30 28 33
Wind_Direction
16 356 344 336 330 326 321 317 314 312 310 309 308 306 305 303 301 300 299 297 296 295 294 292 291 289 286 284 282 279 277 274 272 271 269 266 264 261 258 255 252 250 248
348 340 333 328 324 320 316 314 312 310 309 307 306 305 303 302 301 299 298 297 295 294 292 291 290 289 287 285 282 280 277 274 271 270 268 267 264 262 259 255 252 250 248
336 331 326 321 317 314 312 310 308 307 307 306 304 303 302 301 299 298 297 296 295 294 292 291 289 288 286 285 283 281 278 275 272 269 267 266 264 262 259 256 253 250 248
327 323 319 316 313 311 309 307 306 306 305 304 303 302 301 300 299 298 297 296 296 295 293 292 290 289 287 285 283 281 279 276 274 271 267 265 263 261 259 256 254 251 248
319 317 314 311 309 308 307 306 306 305 304 303 302 301 300 299 299 299 298 298 297 296 295 293 291 289 287 285 283 281 279 277 275 272 269 266 263 260 258 255 253 251 248
312 310 308 307 306 306 305 305 304 304 303 302 302 301 301 300 300 300 300 299 299 298 297 295 293 291 289 288 285 283 280 277 275 272 269 267 263 260 257 255 252 250 248
307 306 306 306 306 305 305 304 304 303 303 302 302 302 302 302 303 302 302 301 300 299 298 297 295 293 291 289 287 284 281 279 276 272 270 267 264 261 258 254 251 248 247
307 307 307 307 307 307 307 306 305 305 305 305 305 305 305 305 304 304 303 302 301 301 300 299 297 295 293 291 288 285 282 279 275 272 269 266 264 261 258 255 251 248 245
307 308 309 309 309 309 309 309 309 309 308 308 307 307 307 306 305 305 304 304 303 302 301 300 298 297 295 293 290 287 284 281 277 273 269 266 262 260 257 254 251 248 245
308 309 311 311 312 313 313 313 313 312 311 310 309 308 308 307 306 306 306 305 304 304 302 301 300 299 298 296 294 292 289 285 281 277 272 268 263 259 256 253 250 248 244
312 314 315 317 318 318 318 317 317 316 314 313 311 310 309 308 308 307 307 306 306 305 304 303 303 302 301 299 297 295 292 289 285 281 276 271 265 260 255 252 249 246 244
318 320 322 324 324 323 322 321 320 319 317 315 314 312 311 310 309 308 308 307 307 306 306 305 304 304 303 301 300 297 294 291 287 283 278 273 268 262 256 252 248 245 242
324 327 329 329 329 328 327 326 324 322 320 317 315 314 312 311 310 309 309 308 307 307 306 306 305 305 304 302 300 297 294 291 288 284 280 275 269 263 257 252 248 244 241
331 332 333 333 333 332 331 329 328 325 322 320 317 315 313 312 311 309 309 308 308 307 307 307 306 306 305 303 300 298 295 291 288 284 280 276 271 265 258 252 247 243 239
336 337 337 336 336 336 335 334 332 329 326 323 319 317 315 313 311 310 310 309 308 308 308 308 308 307 306 304 302 299 295 292 288 284 280 275 270 265 259 253 248 243 239
340 339 338 338 338 339 338 337 336 333 330 326 323 320 317 315 313 312 311 310 310 310 310 310 310 309 308 306 303 300 297 294 291 287 282 277 271 265 259 253 248 243 239
340 339 338 338 338 339 338 338 337 336 334 331 327 324 320 317 315 314 313 312 312 312 313 313 313 312 311 308 306 303 300 297 293 290 285 280 273 266 260 254 248 243 239
342 340 338 337 338 338 338 338 338 338 337 335 332 328 324 320 318 316 315 315 315 315 316 316 316 315 313 311 308 305 303 300 297 293 289 284 278 270 262 254 248 243 239
342 341 340 338 337 337 336 337 338 338 338 337 335 331 327 324 321 319 318 317 318 318 319 320 320 318 316 314 311 309 306 304 301 297 293 287 281 274 266 256 249 243 238
344 342 341 340 338 337 336 336 337 337 338 338 337 334 330 327 324 321 320 320 321 322 323 323 323 321 318 316 314 312 311 308 305 300 296 291 285 277 269 260 251 243 237
345 344 343 342 340 338 337 336 336 336 337 337 337 335 332 329 326 324 323 323 324 326 326 326 325 323 321 319 317 316 315 313 308 304 299 294 288 282 274 264 254 244 236
343 344 343 342 341 339 338 337 336 336 336 336 336 336 334 331 329 327 326 327 328 329 329 329 327 326 324 322 320 320 319 317 312 307 302 298 293 288 280 269 256 245 236
340 341 342 342 341 340 339 338 336 336 336 336 336 336 335 333 331 330 329 330 331 332 332 331 329 328 327 325 324 323 323 322 319 314 307 301 297 293 286 276 262 246 235
336 338 339 340 340 340 339 338 337 336 335 336 336 336 335 334 333 332 332 333 334 334 334 333 331 329 329 329 328 326 325 324 323 321 316 307 301 296 290 282 269 251 236
332 335 336 338 339 339 339 338 337 336 336 336 336 336 336 335 335 334 334 335 336 336 336 334 332 331 331 331 330 330 328 327 324 324 324 316 306 298 291 284 275 259 240
329 332 334 335 336 337 337 337 337 337 336 336 336 336 336 336 336 336 336 337 338 338 337 335 334 334 333 333 333 332 331 329 328 326 326 323 316 303 292 285 278 265 246
Height
5885 5884 5884 5883 5882 5881 5880 5878 5877 5876 5875 5873 5872 5870 5869 5868 5866 5865 5864 5863 5862 5861 5860 5859 5859 5859 5859 5859 5859 5859 5860 5860 5860 5860 5860 5861 5862 5863 5864 5865 5866 5866 5867
5884 5883 5882 5881 5880 5879 5878 5876 5874 5873 5871 5870 5868 5866 5865 5863 5862 5860 5859 5857 5856 5855 5854 5853 5853 5852 5851 5851 5851 5851 5852 5853 5853 5854 5853 5854 5854 5855 5856 5858 5859 5860 5861
5883 5882 5881 5880 5878 5877 5875 5873 5871 5870 5868 5866 5864 5862 5860 5858 5856 5854 5853 5851 5850 5848 5847 5846 5845 5844 5844 5843 5843 5843 5843 5843 5844 5845 5846 5846 5846 5847 5848 5849 5851 5852 5854
5882 5880 5879 5878 5876 5874 5872 5870 5868 5866 5863 5861 5859 5857 5854 5852 5850 5848 5846 5844 5843 5841 5840 5839 5838 5836 5835 5835 5834 5833 5833 5834 5834 5835 5835 5836 5837 5837 5839 5840 5842 5843 5845
5880 5878 5877 5875 5873 5871 5869 5866 5864 5862 5859 5856 5854 5851 5849 5846 5844 5841 5839 5837 5835 5833 5832 5830 5829 5828 5827 5825 5824 5824 5823 5823 5824 5823 5824 5825 5825 5825 5827 5829 5831 5833 5835
5878 5876 5874 5872 5870 5868 5865 5863 5860 5857 5854 5851 5848 5845 5842 5840 5837 5834 5832 5829 5827 5825 5822 5820 5818 5817 5815 5814 5813 5812 5811 5811 5812 5810 5811 5811 5812 5812 5813 5815 5819 5822 5824
5875 5873 5871 5868 5866 5863 5861 5858 5855 5852 5849 5846 5842 5839 5836 5833 5830 5827 5824 5821 5818 5815 5812 5809 5807 5805 5803 5801 5799 5798 5798 5797 5798 5797 5796 5796 5796 5797 5798 5800 5803 5807 5811
5871 5869 5867 5864 5861 5858 5856 5853 5849 5846 5843 5839 5836 5832 5829 5825 5821 5818 5815 5811 5808 5804 5801 5797 5794 5791 5788 5786 5784 5782 5781 5781 5780 5780 5780 5779 5778 5779 5780 5783 5786 5790 5795
5867 5865 5862 5860 5857 5853 5850 5847 5843 5840 5836 5832 5828 5825 5821 5817 5813 5809 5805 5801 5796 5792 5788 5784 5780 5776 5772 5768 5765 5763 5761 5759 5758 5758 5759 5758 5758 5759 5760 5763 5766 5771 5776
5864 5861 5858 5855 5852 5848 5845 5841 5837 5833 5829 5825 5821 5817 5812 5808 5803 5799 5794 5789 5784 5779 5774 5769 5764 5759 5753 5747 5742 5738 5735 5733 5731 5731 5731 5731 5732 5734 5736 5739 5743 5748 5755
5860 5857 5854 5850 5847 5843 5839 5835 5831 5827 5822 5818 5813 5808 5804 5799 5794 5788 5783 5778 5772 5767 5761 5754 5748 5741 5734 5726 5718 5711 5705 5700 5697 5696 5696 5697 5699 5702 5707 5711 5717 5723 5730
5856 5853 5849 5846 5842 5838 5834 5829 5825 5820 5815 5810 5805 5799 5794 5789 5784 5778 5772 5766 5760 5753 5746 5739 5731 5723 5714 5704 5693 5683 5673 5665 5658 5655 5654 5654 5658 5663 5670 5677 5685 5693 5702
5852 5848 5844 5841 5837 5832 5828 5823 5818 5813 5808 5802 5797 5791 5785 5779 5773 5767 5760 5754 5747 5740 5732 5724 5714 5704 5693 5682 5669 5655 5642 5629 5619 5611 5607 5606 5610 5617 5625 5635 5646 5658 5670
5848 5844 5840 5836 5832 5827 5822 5817 5811 5806 5800 5794 5788 5782 5776 5769 5763 5756 5750 5742 5735 5727 5718 5709 5698 5686 5672 5657 5641 5625 5609 5594 5582 5573 5567 5564 5564 5568 5576 5587 5600 5615 5631
5844 5840 5836 5832 5827 5822 5817 5811 5805 5799 5793 5787 5780 5774 5767 5760 5753 5746 5739 5731 5723 5714 5704 5693 5680 5665 5649 5631 5612 5594 5577 5562 5549 5540 5534 5531 5529 5530 5534 5541 5553 5568 5586
5841 5837 5832 5827 5822 5817 5811 5806 5800 5793 5787 5780 5773 5765 5758 5751 5743 5735 5727 5719 5709 5699 5688 5675 5659 5642 5623 5603 5584 5564 5547 5532 5520 5510 5503 5499 5497 5497 5500 5504 5511 5523 5541
5837 5833 5828 5823 5817 5812 5806 5800 5794 5787 5780 5772 5765 5757 5749 5741 5733 5724 5715 5705 5695 5683 5670 5654 5636 5617 5596 5575 5556 5538 5521 5506 5493 5481 5472 5466 5463 5463 5465 5470 5476 5486 5499
5833 5829 5823 5818 5812 5807 5801 5794 5787 5780 5772 5764 5756 5748 5739 5730 5721 5712 5702 5691 5679 5666 5650 5633 5613 5592 5570 5550 5532 5515 5499 5483 5468 5455 5444 5436 5431 5429 5430 5434 5442 5451 5464
5829 5824 5819 5813 5807 5801 5794 5788 5780 5773 5765 5756 5747 5738 5729 5719 5709 5699 5688 5676 5662 5647 5629 5610 5588 5566 5546 5527 5509 5494 5478 5461 5445 5431 5419 5410 5405 5401 5400 5402 5407 5417 5430
5825 5819 5813 5807 5801 5794 5787 5780 5772 5764 5756 5747 5737 5728 5717 5707 5696 5685 5673 5660 5645 5628 5608 5587 5565 5543 5522 5504 5487 5473 5457 5440 5423 5409 5397 5388 5381 5376 5374 5374 5378 5385 5397
5820 5814 5808 5801 5795 5788 5780 5772 5764 5756 5747 5737 5727 5717 5706 5694 5683 5671 5658 5643 5627 5609 5588 5566 5545 5524 5503 5483 5467 5453 5440 5422 5404 5389 5377 5367 5360 5354 5350 5349 5352 5357 5367
5814 5808 5802 5795 5788 5780 5773 5764 5756 5747 5737 5728 5717 5706 5694 5682 5669 5656 5642 5626 5609 5590 5568 5547 5525 5505 5486 5465 5445 5429 5418 5408 5392 5375 5360 5349 5341 5333 5328 5326 5327 5332 5341
5808 5802 5796 5788 5781 5773 5764 5756 5747 5738 5728 5718 5706 5694 5682 5669 5656 5641 5626 5610 5591 5572 5550 5529 5508 5488 5470 5452 5429 5409 5392 5382 5374 5365 5349 5336 5325 5317 5310 5307 5307 5309 5317
5802 5796 5789 5781 5773 5765 5756 5747 5738 5729 5719 5708 5696 5683 5669 5656 5642 5627 5611 5594 5575 5555 5533 5512 5492 5472 5454 5437 5419 5398 5378 5361 5350 5345 5339 5325 5313 5304 5297 5292 5291 5291 5296
5795 5788 5781 5773 5765 5757 5748 5739 5730 5720 5709 5697 5685 5671 5658 5643 5628 5613 5596 5579 5560 5539 5519 5498 5478 5459 5440 5422 5405 5389 5371 5354 5337 5326 5321 5315 5305 5295 5286 5282 5279 5278 5280
5787 5780 5773 5765 5757 5749 5740 5731 5721 5710 5699 5687 5674 5661 5646 5631 5616 5600 5583 5565 5546 5526 5506 5486 5466 5448 5429 5411 5393 5376 5360 5345 5332 5318 5308 5302 5295 5288 5279 5273 5270 5268 5268